SWA1675 KPHX-KLGB

Flight info

Callsign SWA1675
Flight time 0h 57m
Altitude 32000
Route KEENS3 HRRBR EMLLD DSNEE6
Aircraft B737/M-SDE2E3FGHIRWXY/LB1

Departure

Time 2026-05-09 04:06
Airport Phoenix Sky Harbor International Airport (KPHX)

Arrival

Time 2026-05-09 05:04
Airport Long Beach International Airport (KLGB)
Time Latitude Longitude Altitude Speed Heading
2026-05-09 03:56 33.43357 -111.99478 1130 ft 0 kts 68°
2026-05-09 04:01 33.43353 -111.99490 1131 ft 3 kts 68°
2026-05-09 04:01 33.43346 -111.99512 1132 ft 3 kts 83°
2026-05-09 04:02 33.43346 -111.99529 1132 ft 3 kts 144°
2026-05-09 04:02 33.43349 -111.99532 1134 ft 0 kts 179°
2026-05-09 04:04 33.43340 -111.99532 1133 ft 3 kts 179°
2026-05-09 04:04 33.43310 -111.99529 1130 ft 6 kts 159°
2026-05-09 04:05 33.43283 -111.99457 1131 ft 15 kts 91°
2026-05-09 04:05 33.43255 -111.99350 1138 ft 13 kts 161°
2026-05-09 04:05 33.43166 -111.99348 1137 ft 13 kts 179°
2026-05-09 04:05 33.43105 -111.99404 1136 ft 14 kts 268°
2026-05-09 04:06 33.43104 -111.99753 1134 ft 77 kts 270°
2026-05-09 04:06 33.43105 -112.00659 1132 ft 138 kts 270°
2026-05-09 04:06 33.43100 -112.01541 1188 ft 166 kts 269°
2026-05-09 04:06 33.43074 -112.02939 1844 ft 162 kts 268°
2026-05-09 04:07 33.43039 -112.04305 2539 ft 170 kts 268°
2026-05-09 04:07 33.42995 -112.05748 3155 ft 177 kts 266°
2026-05-09 04:07 33.42910 -112.07333 3433 ft 200 kts 261°
2026-05-09 04:07 33.42441 -112.08978 3770 ft 219 kts 246°
2026-05-09 04:08 33.41812 -112.10723 4070 ft 238 kts 248°
2026-05-09 04:08 33.41203 -112.12631 4369 ft 264 kts 250°
2026-05-09 04:08 33.40560 -112.14745 5076 ft 269 kts 250°
2026-05-09 04:08 33.39920 -112.16831 5881 ft 273 kts 250°
2026-05-09 04:09 33.39254 -112.19015 6570 ft 280 kts 255°
2026-05-09 04:09 33.39149 -112.21275 7454 ft 279 kts 277°
2026-05-09 04:09 33.39472 -112.23562 8361 ft 278 kts 279°
2026-05-09 04:09 33.39843 -112.25820 9297 ft 276 kts 279°
2026-05-09 04:10 33.40231 -112.28045 10182 ft 278 kts 281°
2026-05-09 04:10 33.40618 -112.30346 10940 ft 288 kts 281°
2026-05-09 04:10 33.40998 -112.32800 11250 ft 313 kts 282°
2026-05-09 04:10 33.41349 -112.35039 11593 ft 328 kts 282°
2026-05-09 04:11 33.41729 -112.37552 12403 ft 327 kts 282°
2026-05-09 04:11 33.42131 -112.40245 13002 ft 338 kts 282°
2026-05-09 04:11 33.42538 -112.43051 13680 ft 345 kts 281°
2026-05-09 04:11 33.42950 -112.45920 14411 ft 350 kts 282°
2026-05-09 04:12 33.43375 -112.48822 15100 ft 357 kts 282°
2026-05-09 04:12 33.43805 -112.51776 15791 ft 362 kts 282°
2026-05-09 04:12 33.44242 -112.54768 16474 ft 367 kts 282°
2026-05-09 04:12 33.44690 -112.57809 17110 ft 373 kts 282°
2026-05-09 04:13 33.45104 -112.60905 17738 ft 380 kts 277°
2026-05-09 04:13 33.45231 -112.64079 18356 ft 386 kts 272°
2026-05-09 04:13 33.45220 -112.67168 19065 ft 389 kts 271°
2026-05-09 04:13 33.45199 -112.70401 19802 ft 391 kts 271°
2026-05-09 04:14 33.45199 -112.73668 20497 ft 393 kts 272°
2026-05-09 04:14 33.45226 -112.76959 21205 ft 395 kts 272°
2026-05-09 04:14 33.45297 -112.80252 21856 ft 397 kts 276°
2026-05-09 04:14 33.45740 -112.83522 22461 ft 399 kts 283°
2026-05-09 04:15 33.46229 -112.86102 22951 ft 402 kts 284°
2026-05-09 04:15 33.46833 -112.89084 23524 ft 403 kts 285°
2026-05-09 04:15 33.47498 -112.92361 24181 ft 406 kts 284°
2026-05-09 04:15 33.48161 -112.95671 24771 ft 410 kts 284°
2026-05-09 04:16 33.48811 -112.99000 25360 ft 413 kts 284°
2026-05-09 04:16 33.49448 -113.02328 26241 ft 405 kts 284°
2026-05-09 04:16 33.50065 -113.05607 27060 ft 402 kts 284°
2026-05-09 04:16 33.50667 -113.08834 27691 ft 402 kts 284°
2026-05-09 04:17 33.51272 -113.12110 28354 ft 401 kts 283°
2026-05-09 04:17 33.51870 -113.15359 29103 ft 396 kts 284°
2026-05-09 04:17 33.52462 -113.18579 29766 ft 393 kts 283°
2026-05-09 04:17 33.53053 -113.21781 30341 ft 393 kts 284°
2026-05-09 04:18 33.53634 -113.24957 30964 ft 390 kts 283°
2026-05-09 04:18 33.54212 -113.28117 31550 ft 390 kts 284°
2026-05-09 04:18 33.54794 -113.31275 31854 ft 388 kts 283°
2026-05-09 04:18 33.55379 -113.34449 31845 ft 390 kts 284°
2026-05-09 04:19 33.56550 -113.40790 31859 ft 388 kts 283°
2026-05-09 04:19 33.57691 -113.47096 31856 ft 387 kts 283°
2026-05-09 04:20 33.58832 -113.53344 31851 ft 386 kts 283°
2026-05-09 04:20 33.60014 -113.59624 31837 ft 385 kts 283°
2026-05-09 04:21 33.61184 -113.65910 31847 ft 386 kts 283°
2026-05-09 04:22 33.62551 -113.73269 31835 ft 388 kts 283°
2026-05-09 04:22 33.63614 -113.79005 31849 ft 388 kts 283°
2026-05-09 04:23 33.64784 -113.85345 31855 ft 389 kts 283°
2026-05-09 04:23 33.65596 -113.88428 31853 ft 387 kts 294°
2026-05-09 04:23 33.66725 -113.91355 31851 ft 387 kts 296°
2026-05-09 04:24 33.69055 -113.97158 31858 ft 388 kts 296°
2026-05-09 04:24 33.71357 -114.03013 31829 ft 388 kts 295°
2026-05-09 04:25 33.73616 -114.08867 31830 ft 384 kts 295°
2026-05-09 04:25 33.75781 -114.14715 31825 ft 383 kts 287°
2026-05-09 04:26 33.76628 -114.21033 31825 ft 385 kts 278°
2026-05-09 04:26 33.77338 -114.27422 31838 ft 387 kts 278°
2026-05-09 04:27 33.78084 -114.33799 31835 ft 386 kts 279°
2026-05-09 04:27 33.78813 -114.40218 31836 ft 389 kts 279°
2026-05-09 04:28 33.79544 -114.46692 31833 ft 390 kts 278°
2026-05-09 04:28 33.80255 -114.53153 31825 ft 389 kts 279°
2026-05-09 04:29 33.81044 -114.59604 31774 ft 388 kts 279°
2026-05-09 04:29 33.81401 -114.62819 31638 ft 388 kts 278°
2026-05-09 04:29 33.81769 -114.66040 31549 ft 390 kts 279°
2026-05-09 04:29 33.82140 -114.69267 31443 ft 390 kts 278°
2026-05-09 04:30 33.82499 -114.72490 31381 ft 387 kts 278°
2026-05-09 04:30 33.83216 -114.78903 31254 ft 386 kts 278°
2026-05-09 04:31 33.83929 -114.85296 31082 ft 384 kts 278°
2026-05-09 04:31 33.84283 -114.88440 31259 ft 386 kts 278°
2026-05-09 04:31 33.84641 -114.91653 31701 ft 386 kts 278°
2026-05-09 04:31 33.84988 -114.94874 31804 ft 390 kts 278°
2026-05-09 04:32 33.85356 -114.98118 31823 ft 391 kts 279°
2026-05-09 04:32 33.86054 -115.04567 31825 ft 388 kts 278°
2026-05-09 04:33 33.86784 -115.10993 31820 ft 386 kts 279°
2026-05-09 04:33 33.87458 -115.17400 31832 ft 387 kts 278°
2026-05-09 04:34 33.88178 -115.23821 31834 ft 387 kts 278°
2026-05-09 04:34 33.88896 -115.30201 31846 ft 387 kts 278°
2026-05-09 04:35 33.89592 -115.36636 31856 ft 389 kts 278°
2026-05-09 04:35 33.90288 -115.43104 31843 ft 391 kts 278°
2026-05-09 04:36 33.90992 -115.49620 31831 ft 391 kts 278°
2026-05-09 04:36 33.91336 -115.52859 31600 ft 388 kts 278°
2026-05-09 04:36 33.91675 -115.56075 31350 ft 388 kts 278°
2026-05-09 04:36 33.92008 -115.59198 31098 ft 385 kts 278°
2026-05-09 04:37 33.92340 -115.62291 30855 ft 382 kts 278°
2026-05-09 04:37 33.92668 -115.65433 30601 ft 380 kts 277°
2026-05-09 04:37 33.92941 -115.68629 30389 ft 393 kts 276°
2026-05-09 04:37 33.93176 -115.71989 30162 ft 412 kts 275°
2026-05-09 04:38 33.93403 -115.75499 29938 ft 429 kts 275°
2026-05-09 04:38 33.93639 -115.79097 29699 ft 442 kts 275°
2026-05-09 04:38 33.93893 -115.82844 29465 ft 455 kts 275°
2026-05-09 04:38 33.94161 -115.86663 29200 ft 458 kts 275°
2026-05-09 04:39 33.94424 -115.90528 28940 ft 457 kts 275°
2026-05-09 04:39 33.94682 -115.94280 28691 ft 452 kts 275°
2026-05-09 04:39 33.94950 -115.98048 28445 ft 451 kts 275°
2026-05-09 04:39 33.95213 -116.01810 28185 ft 450 kts 275°
2026-05-09 04:40 33.95467 -116.05561 27751 ft 450 kts 275°
2026-05-09 04:40 33.95642 -116.08108 27433 ft 449 kts 275°
2026-05-09 04:40 33.95897 -116.11784 26928 ft 445 kts 275°
2026-05-09 04:40 33.96155 -116.15487 26424 ft 441 kts 275°
2026-05-09 04:41 33.96403 -116.19165 25924 ft 439 kts 274°
2026-05-09 04:41 33.96334 -116.22840 25390 ft 439 kts 262°
2026-05-09 04:41 33.95814 -116.26448 24917 ft 436 kts 261°
2026-05-09 04:41 33.95293 -116.30034 24399 ft 434 kts 261°
2026-05-09 04:42 33.94816 -116.33615 23887 ft 433 kts 262°
2026-05-09 04:42 33.94367 -116.37187 23373 ft 432 kts 262°
2026-05-09 04:42 33.93940 -116.40711 22859 ft 431 kts 262°
2026-05-09 04:42 33.93508 -116.44265 22334 ft 426 kts 262°
2026-05-09 04:43 33.93078 -116.47786 21827 ft 421 kts 262°
2026-05-09 04:43 33.92649 -116.51250 21310 ft 416 kts 262°
2026-05-09 04:43 33.92209 -116.54674 20817 ft 412 kts 261°
2026-05-09 04:43 33.91750 -116.58067 20266 ft 408 kts 262°
2026-05-09 04:44 33.91327 -116.61434 19728 ft 406 kts 262°
2026-05-09 04:44 33.90909 -116.64775 19213 ft 403 kts 262°
2026-05-09 04:44 33.90492 -116.68107 18678 ft 401 kts 262°
2026-05-09 04:44 33.90060 -116.71404 18171 ft 398 kts 262°
2026-05-09 04:45 33.89633 -116.74692 17645 ft 396 kts 262°
2026-05-09 04:45 33.89233 -116.77973 17147 ft 392 kts 263°
2026-05-09 04:45 33.88881 -116.81176 16567 ft 389 kts 263°
2026-05-09 04:45 33.88536 -116.84376 16058 ft 382 kts 263°
2026-05-09 04:46 33.88199 -116.87522 15584 ft 377 kts 263°
2026-05-09 04:46 33.87861 -116.90647 15112 ft 375 kts 263°
2026-05-09 04:46 33.87526 -116.93733 14648 ft 371 kts 263°
2026-05-09 04:46 33.87204 -116.96683 14204 ft 371 kts 263°
2026-05-09 04:47 33.86917 -116.99339 13821 ft 371 kts 263°
2026-05-09 04:47 33.86578 -117.02417 13438 ft 369 kts 263°
2026-05-09 04:47 33.86300 -117.04887 13119 ft 368 kts 263°
2026-05-09 04:47 33.85966 -117.07842 12723 ft 354 kts 263°
2026-05-09 04:48 33.85649 -117.10721 12348 ft 340 kts 263°
2026-05-09 04:48 33.85343 -117.13480 11985 ft 327 kts 263°
2026-05-09 04:48 33.85046 -117.16148 11647 ft 316 kts 263°
2026-05-09 04:48 33.84757 -117.18734 11312 ft 307 kts 263°
2026-05-09 04:49 33.84474 -117.21274 10989 ft 307 kts 263°
2026-05-09 04:49 33.84194 -117.23798 10656 ft 304 kts 263°
2026-05-09 04:49 33.83915 -117.26281 10332 ft 296 kts 262°
2026-05-09 04:49 33.83637 -117.28718 10021 ft 291 kts 262°
2026-05-09 04:50 33.83366 -117.31113 9708 ft 287 kts 262°
2026-05-09 04:50 33.83097 -117.33475 9406 ft 283 kts 262°
2026-05-09 04:50 33.82836 -117.35774 9111 ft 278 kts 262°
2026-05-09 04:50 33.82579 -117.38062 8807 ft 274 kts 262°
2026-05-09 04:51 33.82325 -117.40313 8526 ft 270 kts 262°
2026-05-09 04:51 33.82071 -117.42539 8238 ft 266 kts 262°
2026-05-09 04:51 33.81808 -117.44711 7989 ft 261 kts 259°
2026-05-09 04:51 33.81303 -117.46751 7900 ft 249 kts 250°
2026-05-09 04:52 33.80981 -117.47776 7834 ft 245 kts 250°
2026-05-09 04:52 33.80525 -117.49218 7767 ft 242 kts 249°
2026-05-09 04:52 33.79989 -117.50884 7717 ft 243 kts 249°
2026-05-09 04:52 33.79381 -117.52788 7643 ft 245 kts 250°
2026-05-09 04:53 33.78776 -117.54733 7552 ft 248 kts 250°
2026-05-09 04:53 33.78173 -117.56687 7458 ft 251 kts 250°
2026-05-09 04:53 33.77573 -117.58656 7385 ft 252 kts 250°
2026-05-09 04:53 33.76975 -117.60614 7297 ft 252 kts 250°
2026-05-09 04:54 33.76574 -117.61922 7228 ft 251 kts 250°
2026-05-09 04:54 33.76398 -117.62496 7169 ft 252 kts 250°
2026-05-09 04:54 33.75992 -117.63831 6945 ft 254 kts 251°
2026-05-09 04:54 33.75655 -117.64948 6785 ft 250 kts 251°
2026-05-09 04:55 33.75050 -117.66953 6483 ft 248 kts 251°
2026-05-09 04:55 33.74478 -117.68893 6240 ft 243 kts 251°
2026-05-09 04:55 33.73928 -117.70763 5978 ft 238 kts 251°
2026-05-09 04:55 33.73378 -117.72649 5707 ft 241 kts 251°
2026-05-09 04:56 33.72817 -117.74540 5462 ft 241 kts 251°
2026-05-09 04:56 33.72433 -117.75824 5282 ft 241 kts 251°
2026-05-09 04:56 33.71872 -117.77704 5009 ft 239 kts 251°
2026-05-09 04:56 33.71384 -117.79337 4780 ft 238 kts 251°
2026-05-09 04:57 33.70910 -117.80913 4566 ft 238 kts 250°
2026-05-09 04:57 33.70435 -117.82484 4339 ft 238 kts 251°
2026-05-09 04:57 33.69890 -117.84324 4098 ft 237 kts 251°
2026-05-09 04:57 33.69334 -117.86184 4038 ft 238 kts 251°
2026-05-09 04:58 33.68817 -117.87927 3999 ft 238 kts 251°
2026-05-09 04:58 33.68255 -117.89782 3997 ft 236 kts 251°
2026-05-09 04:58 33.67712 -117.91630 3990 ft 234 kts 251°
2026-05-09 04:58 33.67201 -117.93486 3998 ft 236 kts 260°
2026-05-09 04:59 33.67059 -117.95457 3874 ft 242 kts 268°
2026-05-09 04:59 33.67307 -117.97182 3825 ft 236 kts 296°
2026-05-09 04:59 33.68329 -117.98679 3564 ft 236 kts 316°
2026-05-09 04:59 33.69479 -118.00106 3247 ft 238 kts 313°
2026-05-09 05:00 33.70619 -118.01536 2920 ft 237 kts 314°
2026-05-09 05:00 33.71767 -118.02943 2620 ft 236 kts 314°
2026-05-09 05:00 33.72911 -118.04334 2320 ft 230 kts 314°
2026-05-09 05:00 33.74000 -118.05660 2007 ft 215 kts 314°
2026-05-09 05:01 33.75005 -118.06884 1726 ft 199 kts 314°
2026-05-09 05:01 33.75888 -118.07961 1483 ft 183 kts 314°
2026-05-09 05:01 33.76746 -118.09001 1254 ft 168 kts 314°
2026-05-09 05:01 33.77525 -118.09953 1082 ft 150 kts 314°
2026-05-09 05:02 33.78220 -118.10809 831 ft 137 kts 313°
2026-05-09 05:02 33.78860 -118.11609 646 ft 131 kts 315°
2026-05-09 05:02 33.79508 -118.12400 483 ft 137 kts 314°
2026-05-09 05:02 33.80184 -118.13221 338 ft 138 kts 315°
2026-05-09 05:03 33.80865 -118.14039 156 ft 138 kts 315°
2026-05-09 05:03 33.81158 -118.14388 68 ft 138 kts 315°
2026-05-09 05:03 33.81609 -118.14930 43 ft 112 kts 315°
2026-05-09 05:03 33.81811 -118.15173 40 ft 56 kts 315°
2026-05-09 05:04 33.81825 -118.15190 40 ft 4 kts 315°
2026-05-09 05:04 33.81883 -118.15260 40 ft 10 kts 315°
2026-05-09 05:04 33.81944 -118.15334 41 ft 18 kts 313°
2026-05-09 05:04 33.82030 -118.15439 40 ft 25 kts 315°
2026-05-09 05:05 33.82128 -118.15528 41 ft 14 kts
2026-05-09 05:05 33.82162 -118.15480 40 ft 12 kts 88°
2026-05-09 05:05 33.82163 -118.15395 40 ft 9 kts 90°
2026-05-09 05:05 33.82164 -118.15311 40 ft 11 kts 90°
2026-05-09 05:06 33.82164 -118.15209 40 ft 13 kts 90°
2026-05-09 05:06 33.82163 -118.15108 42 ft 12 kts 90°
2026-05-09 05:06 33.82163 -118.14994 41 ft 16 kts 92°
2026-05-09 05:06 33.82162 -118.14859 40 ft 16 kts 90°
2026-05-09 05:07 33.82162 -118.14842 40 ft 17 kts 90°
2026-05-09 05:07 33.82161 -118.14744 39 ft 19 kts 97°
2026-05-09 05:07 33.82147 -118.14710 39 ft 19 kts 128°
2026-05-09 05:07 33.82064 -118.14697 42 ft 8 kts 187°
2026-05-09 05:08 33.82021 -118.14687 42 ft 5 kts 127°
2026-05-09 05:08 33.82018 -118.14679 40 ft 0 kts 109°
2026-05-09 05:08 33.82017 -118.14625 40 ft 11 kts 90°
2026-05-09 05:09 33.82017 -118.14610 40 ft 2 kts 91°
2026-05-09 05:09 33.82017 -118.14602 42 ft 0 kts 91°